sat.trackr.live / text

‹ back to catalog

GEESAT-3 08

NORAD 61018 · 2024-159H

PAYLOAD ACTIVE UNKNOWN

§ Identity

Operator
Country
PRC
Launch date
2024-09-05
Launch site
TAISC
Launch vehicle
Mass (kg)
RCS (m²)

External: N2YO · Heavens-Above · Gunter

§ Orbital elements

Epoch: 2026-09-22T20:48:13.935744Z

Period
97.00 min
Inclination
50.0070°
Eccentricity
0.0027064
Mean motion
14.84507786 rev/d
Perigee alt
596.2 km
Apogee alt
634.1 km
Semi-major
6,993.3 km
B*
1.4948e-4
RAAN
349.9679°
Arg perigee
109.5482°
Mean anomaly
250.8383°
Rev number
11,128

§ Raw data

GEESAT-3 081 61018U 24159H   26265.86682796  .00001046  00000+0  14948-3 0  99992 61018  50.0070 349.9679 0027064 109.5482 250.8383 14.84507786111287

JSON: /api/v1/satellites/61018 · /tle

For live sub-satellite position, see the globe view (requires WebGL).

§ Visibility from observer

Set your observer location to see the next 7 days of passes ≥ 10°. The values pass through the URL so the page stays shareable.

No JS? Fill the form by hand. The geolocation button needs JavaScript.